{"data":{"norad_id":60499,"epoch":"2026-06-28T18:05:58.638624Z","epoch_age_seconds":7250161,"freshness":"OLD","line1":"1 60499U 24149AH  26179.75415091  .00150626  00000+0  18635-2 0  9999","line2":"2 60499  97.3771 265.6851 0005568 222.8111 137.2713 15.59578881103575","mean_motion":15.59578881,"eccentricity":0.0005568,"inclination_deg":97.3771,"raan_deg":265.6851,"arg_perigee_deg":222.8111,"mean_anomaly_deg":137.2713,"bstar":0.0018635,"rev_number":10357,"period_min":92.332617320175,"perigee_km":385.10709121075,"apogee_km":392.64283573328,"semimajor_km":6767.011963472,"source":"CELESTRAK","updated_at":"2026-06-30T09:00:20.241306Z"}}